Time,TemperatureF,DewpointF,PressureIn,WindDirection,WindDirectionDegrees,WindSpeedMPH,WindSpeedGustMPH,Humidity,HourlyPrecipIn,Conditions,Clouds,dailyrainin,SolarRadiationWatts/m^2,SoftwareType,DateUTC
2013-07-16 00:01:00,80.0,72.8,30.11,NW,317,0.0,4.0,79,0.00,,,0.00,0,HR-IXPWINDi_r2_v1.2.,2013-07-16 04:01:00,
2013-07-16 00:06:00,79.8,72.7,30.10,NW,319,3.0,4.0,79,0.00,,,0.00,0,HR-IXPWINDi_r2_v1.2.,2013-07-16 04:06:00,
2013-07-16 00:11:00,79.6,72.5,30.10,NW,309,1.0,4.0,79,0.00,,,0.00,0,HR-IXPWINDi_r2_v1.2.,2013-07-16 04:11:00,
2013-07-16 00:16:00,79.6,72.5,30.10,NW,322,2.0,5.0,79,0.00,,,0.00,0,HR-IXPWINDi_r2_v1.2.,2013-07-16 04:16:00,
2013-07-16 00:21:00,79.3,72.2,30.10,NW,317,3.0,5.0,79,0.00,,,0.00,0,HR-IXPWINDi_r2_v1.2.,2013-07-16 04:21:00,
2013-07-16 00:27:00,79.3,72.2,30.11,NNW,328,5.0,6.0,79,0.00,,,0.00,0,HR-IXPWINDi_r2_v1.2.,2013-07-16 04:27:00,
2013-07-16 00:32:00,79.3,72.2,30.10,NW,318,2.0,6.0,79,0.00,,,0.00,0,HR-IXPWINDi_r2_v1.2.,2013-07-16 04:32:00,
2013-07-16 00:37:00,79.4,71.5,30.10,NW,312,2.0,6.0,77,0.00,,,0.00,0,HR-IXPWINDi_r2_v1.2.,2013-07-16 04:37:00,
2013-07-16 00:42:00,79.5,71.2,30.10,NW,317,3.0,5.0,76,0.00,,,0.00,0,HR-IXPWINDi_r2_v1.2.,2013-07-16 04:42:00,
2013-07-16 00:48:00,79.8,70.7,30.10,NNW,329,4.0,5.0,74,0.00,,,0.00,0,HR-IXPWINDi_r2_v1.2.,2013-07-16 04:48:00,
2013-07-16 00:54:00,79.8,70.7,30.10,NW,309,3.0,6.0,74,0.00,,,0.00,0,HR-IXPWINDi_r2_v1.2.,2013-07-16 04:54:00,
2013-07-16 00:59:00,79.8,70.7,30.10,NNW,340,2.0,6.0,74,0.00,,,0.00,0,HR-IXPWINDi_r2_v1.2.,2013-07-16 04:59:00,
2013-07-16 01:04:00,79.6,70.1,30.10,NNW,333,4.0,6.0,73,0.00,,,0.00,0,HR-IXPWINDi_r2_v1.2.,2013-07-16 05:04:00,
2013-07-16 01:09:00,79.6,70.1,30.10,NNW,332,3.0,7.0,73,0.00,,,0.00,0,HR-IXPWINDi_r2_v1.2.,2013-07-16 05:09:00,
2013-07-16 01:14:00,79.6,69.7,30.10,NNW,327,3.0,7.0,72,0.00,,,0.00,0,HR-IXPWINDi_r2_v1.2.,2013-07-16 05:14:00,
2013-07-16 01:19:00,79.7,69.4,30.10,NW,321,3.0,7.0,71,0.00,,,0.00,0,HR-IXPWINDi_r2_v1.2.,2013-07-16 05:19:00,
2013-07-16 01:25:00,79.7,69.4,30.10,NNW,331,4.0,7.0,71,0.00,,,0.00,0,HR-IXPWINDi_r2_v1.2.,2013-07-16 05:25:00,
2013-07-16 01:30:00,79.5,69.6,30.10,NW,310,5.0,6.0,72,0.00,,,0.00,0,HR-IXPWINDi_r2_v1.2.,2013-07-16 05:30:00,
2013-07-16 01:35:00,79.3,69.4,30.10,WNW,300,5.0,8.0,72,0.00,,,0.00,0,HR-IXPWINDi_r2_v1.2.,2013-07-16 05:35:00,
2013-07-16 01:40:00,79.0,69.1,30.10,NW,307,4.0,9.0,72,0.00,,,0.00,0,HR-IXPWINDi_r2_v1.2.,2013-07-16 05:40:00,
2013-07-16 01:46:00,78.8,69.0,30.10,NNW,342,4.0,9.0,72,0.00,,,0.00,0,HR-IXPWINDi_r2_v1.2.,2013-07-16 05:46:00,
2013-07-16 01:51:00,78.5,68.7,30.10,NNE,17,4.0,9.0,72,0.00,,,0.00,0,HR-IXPWINDi_r2_v1.2.,2013-07-16 05:51:00,
2013-07-16 01:56:00,78.4,68.6,30.10,North,350,3.0,9.0,72,0.00,,,0.00,0,HR-IXPWINDi_r2_v1.2.,2013-07-16 05:56:00,
2013-07-16 02:01:00,78.2,68.8,30.10,North,5,5.0,9.0,73,0.00,,,0.00,0,HR-IXPWINDi_r2_v1.2.,2013-07-16 06:01:00,
2013-07-16 02:06:00,78.0,68.6,30.10,NNW,329,7.0,10.0,73,0.00,,,0.00,0,HR-IXPWINDi_r2_v1.2.,2013-07-16 06:06:00,
2013-07-16 02:11:00,77.8,68.4,30.10,North,355,3.0,10.0,73,0.00,,,0.00,0,HR-IXPWINDi_r2_v1.2.,2013-07-16 06:11:00,
2013-07-16 02:17:00,77.6,68.2,30.10,NNW,331,2.0,9.0,73,0.00,,,0.00,0,HR-IXPWINDi_r2_v1.2.,2013-07-16 06:17:00,
2013-07-16 02:22:00,77.5,68.1,30.10,NNW,334,9.0,11.0,73,0.00,,,0.00,0,HR-IXPWINDi_r2_v1.2.,2013-07-16 06:22:00,
2013-07-16 02:27:00,77.5,67.7,30.10,NNW,334,4.0,11.0,72,0.00,,,0.00,0,HR-IXPWINDi_r2_v1.2.,2013-07-16 06:27:00,
2013-07-16 02:32:00,77.4,67.6,30.10,North,5,4.0,10.0,72,0.00,,,0.00,0,HR-IXPWINDi_r2_v1.2.,2013-07-16 06:32:00,
2013-07-16 02:37:00,77.1,67.7,30.10,NNW,333,6.0,10.0,73,0.00,,,0.00,0,HR-IXPWINDi_r2_v1.2.,2013-07-16 06:37:00,
2013-07-16 02:42:00,77.0,67.6,30.10,NW,318,8.0,11.0,73,0.00,,,0.00,0,HR-IXPWINDi_r2_v1.2.,2013-07-16 06:42:00,
2013-07-16 02:49:00,77.0,67.2,30.09,NW,323,3.0,11.0,72,0.00,,,0.00,0,HR-IXPWINDi_r2_v1.2.,2013-07-16 06:49:00,
2013-07-16 02:54:00,76.9,67.1,30.10,NW,314,7.0,10.0,72,0.00,,,0.00,0,HR-IXPWINDi_r2_v1.2.,2013-07-16 06:54:00,
2013-07-16 02:59:00,76.8,67.0,30.09,NNW,344,6.0,10.0,72,0.00,,,0.00,0,HR-IXPWINDi_r2_v1.2.,2013-07-16 06:59:00,
2013-07-16 03:04:00,76.7,66.9,30.09,NNW,344,4.0,9.0,72,0.00,,,0.00,0,HR-IXPWINDi_r2_v1.2.,2013-07-16 07:04:00,
2013-07-16 03:10:00,76.6,66.8,30.09,North,9,3.0,9.0,72,0.00,,,0.00,0,HR-IXPWINDi_r2_v1.2.,2013-07-16 07:10:00,
2013-07-16 03:15:00,76.5,66.7,30.09,NNW,334,3.0,8.0,72,0.00,,,0.00,0,HR-IXPWINDi_r2_v1.2.,2013-07-16 07:15:00,
2013-07-16 03:20:00,76.4,66.6,30.09,NNW,327,6.0,7.0,72,0.00,,,0.00,0,HR-IXPWINDi_r2_v1.2.,2013-07-16 07:20:00,
2013-07-16 03:25:00,76.4,66.6,30.10,NNW,343,9.0,9.0,72,0.00,,,0.00,0,HR-IXPWINDi_r2_v1.2.,2013-07-16 07:25:00,
2013-07-16 03:30:00,76.2,66.9,30.09,NNW,345,6.0,10.0,73,0.00,,,0.00,0,HR-IXPWINDi_r2_v1.2.,2013-07-16 07:30:00,
2013-07-16 03:35:00,76.1,66.8,30.09,North,355,3.0,10.0,73,0.00,,,0.00,0,HR-IXPWINDi_r2_v1.2.,2013-07-16 07:35:00,
2013-07-16 03:41:00,76.1,66.8,30.09,NNW,340,6.0,9.0,73,0.00,,,0.00,0,HR-IXPWINDi_r2_v1.2.,2013-07-16 07:41:00,
2013-07-16 03:46:00,76.1,66.4,30.09,NW,323,5.0,10.0,72,0.00,,,0.00,0,HR-IXPWINDi_r2_v1.2.,2013-07-16 07:46:00,
2013-07-16 03:51:00,76.1,66.4,30.09,North,360,6.0,11.0,72,0.00,,,0.00,0,HR-IXPWINDi_r2_v1.2.,2013-07-16 07:51:00,
2013-07-16 03:56:00,76.2,66.1,30.09,NNW,336,7.0,11.0,71,0.00,,,0.00,0,HR-IXPWINDi_r2_v1.2.,2013-07-16 07:56:00,
2013-07-16 04:02:00,76.2,66.1,30.09,NNW,342,8.0,11.0,71,0.00,,,0.00,0,HR-IXPWINDi_r2_v1.2.,2013-07-16 08:02:00,
2013-07-16 04:07:00,76.1,66.0,30.09,NNW,341,6.0,10.0,71,0.00,,,0.00,0,HR-IXPWINDi_r2_v1.2.,2013-07-16 08:07:00,
2013-07-16 04:12:00,76.1,66.0,30.09,NNW,346,7.0,9.0,71,0.00,,,0.00,0,HR-IXPWINDi_r2_v1.2.,2013-07-16 08:12:00,
2013-07-16 04:17:00,76.0,65.9,30.09,North,5,6.0,9.0,71,0.00,,,0.00,0,HR-IXPWINDi_r2_v1.2.,2013-07-16 08:17:00,
2013-07-16 04:22:00,75.9,65.8,30.09,NW,323,4.0,9.0,71,0.00,,,0.00,0,HR-IXPWINDi_r2_v1.2.,2013-07-16 08:22:00,
2013-07-16 04:28:00,75.8,65.7,30.09,NNW,337,6.0,8.0,71,0.00,,,0.00,0,HR-IXPWINDi_r2_v1.2.,2013-07-16 08:28:00,
2013-07-16 04:33:00,75.8,65.7,30.09,North,355,4.0,8.0,71,0.00,,,0.00,0,HR-IXPWINDi_r2_v1.2.,2013-07-16 08:33:00,
2013-07-16 04:38:00,75.8,65.7,30.10,North,351,2.0,8.0,71,0.00,,,0.00,0,HR-IXPWINDi_r2_v1.2.,2013-07-16 08:38:00,
2013-07-16 04:43:00,75.7,66.0,30.10,NNE,15,4.0,8.0,72,0.00,,,0.00,0,HR-IXPWINDi_r2_v1.2.,2013-07-16 08:43:00,
2013-07-16 04:48:00,75.6,65.9,30.10,North,10,6.0,9.0,72,0.00,,,0.00,0,HR-IXPWINDi_r2_v1.2.,2013-07-16 08:48:00,
2013-07-16 04:54:00,75.5,65.8,30.10,NNW,341,4.0,9.0,72,0.00,,,0.00,0,HR-IXPWINDi_r2_v1.2.,2013-07-16 08:54:00,
2013-07-16 04:59:00,75.4,66.1,30.10,NNW,336,5.0,9.0,73,0.00,,,0.00,0,HR-IXPWINDi_r2_v1.2.,2013-07-16 08:59:00,
2013-07-16 05:04:00,75.3,66.0,30.10,North,360,3.0,10.0,73,0.00,,,0.00,0,HR-IXPWINDi_r2_v1.2.,2013-07-16 09:04:00,
2013-07-16 05:09:00,75.2,65.9,30.10,North,360,4.0,10.0,73,0.00,,,0.00,0,HR-IXPWINDi_r2_v1.2.,2013-07-16 09:09:00,
2013-07-16 05:14:00,75.3,66.0,30.10,NW,311,7.0,8.0,73,0.00,,,0.00,0,HR-IXPWINDi_r2_v1.2.,2013-07-16 09:14:00,
2013-07-16 05:19:00,75.3,66.0,30.10,NNW,347,6.0,9.0,73,0.00,,,0.00,0,HR-IXPWINDi_r2_v1.2.,2013-07-16 09:19:00,
2013-07-16 05:25:00,75.3,66.4,30.11,NNW,328,4.0,10.0,74,0.00,,,0.00,5,HR-IXPWINDi_r2_v1.2.,2013-07-16 09:25:00,
2013-07-16 05:30:00,75.2,66.3,30.11,NNW,337,4.0,10.0,74,0.00,,,0.00,7,HR-IXPWINDi_r2_v1.2.,2013-07-16 09:30:00,
2013-07-16 05:35:00,75.3,66.4,30.11,NNW,333,5.0,9.0,74,0.00,,,0.00,9,HR-IXPWINDi_r2_v1.2.,2013-07-16 09:35:00,
2013-07-16 05:40:00,75.5,66.6,30.11,North,355,5.0,9.0,74,0.00,,,0.00,12,HR-IXPWINDi_r2_v1.2.,2013-07-16 09:40:00,
2013-07-16 05:45:00,75.5,66.6,30.11,NNW,330,7.0,10.0,74,0.00,,,0.00,14,HR-IXPWINDi_r2_v1.2.,2013-07-16 09:45:00,
2013-07-16 05:50:00,75.5,66.6,30.11,North,5,6.0,10.0,74,0.00,,,0.00,18,HR-IXPWINDi_r2_v1.2.,2013-07-16 09:50:00,
2013-07-16 05:55:00,75.4,66.5,30.11,NNE,27,3.0,9.0,74,0.00,,,0.00,21,HR-IXPWINDi_r2_v1.2.,2013-07-16 09:55:00,
2013-07-16 06:01:00,75.4,66.5,30.11,NNW,341,5.0,11.0,74,0.00,,,0.00,26,HR-IXPWINDi_r2_v1.2.,2013-07-16 10:01:00,
2013-07-16 06:06:00,75.4,66.9,30.11,NNW,333,8.0,11.0,75,0.00,,,0.00,37,HR-IXPWINDi_r2_v1.2.,2013-07-16 10:06:00,
2013-07-16 06:11:00,75.5,66.6,30.11,NNE,15,4.0,12.0,74,0.00,,,0.00,49,HR-IXPWINDi_r2_v1.2.,2013-07-16 10:11:00,
2013-07-16 06:16:00,75.5,66.6,30.11,NW,326,5.0,12.0,74,0.00,,,0.00,65,HR-IXPWINDi_r2_v1.2.,2013-07-16 10:16:00,
2013-07-16 06:21:00,75.7,66.8,30.11,NW,320,8.0,11.0,74,0.00,,,0.00,81,HR-IXPWINDi_r2_v1.2.,2013-07-16 10:21:00,
2013-07-16 06:26:00,75.8,66.9,30.12,NNW,337,8.0,11.0,74,0.00,,,0.00,95,HR-IXPWINDi_r2_v1.2.,2013-07-16 10:26:00,
2013-07-16 06:32:00,75.9,67.0,30.12,North,355,2.0,11.0,74,0.00,,,0.00,113,HR-IXPWINDi_r2_v1.2.,2013-07-16 10:32:00,
2013-07-16 06:37:00,76.0,67.1,30.12,North,350,4.0,11.0,74,0.00,,,0.00,128,HR-IXPWINDi_r2_v1.2.,2013-07-16 10:37:00,
2013-07-16 06:42:00,76.2,67.2,30.12,NNW,329,5.0,9.0,74,0.00,,,0.00,144,HR-IXPWINDi_r2_v1.2.,2013-07-16 10:42:00,
2013-07-16 06:47:00,76.5,67.5,30.12,NNW,342,8.0,10.0,74,0.00,,,0.00,160,HR-IXPWINDi_r2_v1.2.,2013-07-16 10:47:00,
2013-07-16 06:52:00,76.8,67.4,30.12,North,5,7.0,10.0,73,0.00,,,0.00,176,HR-IXPWINDi_r2_v1.2.,2013-07-16 10:52:00,
2013-07-16 06:58:00,77.0,67.6,30.12,NNW,346,11.0,12.0,73,0.00,,,0.00,190,HR-IXPWINDi_r2_v1.2.,2013-07-16 10:58:00,
2013-07-16 07:03:00,77.3,67.5,30.12,North,355,6.0,12.0,72,0.00,,,0.00,204,HR-IXPWINDi_r2_v1.2.,2013-07-16 11:03:00,
2013-07-16 07:08:00,77.4,67.6,30.12,North,5,6.0,12.0,72,0.00,,,0.00,218,HR-IXPWINDi_r2_v1.2.,2013-07-16 11:08:00,
2013-07-16 07:13:00,77.7,67.9,30.12,NW,317,8.0,12.0,72,0.00,,,0.00,232,HR-IXPWINDi_r2_v1.2.,2013-07-16 11:13:00,
2013-07-16 07:18:00,78.0,68.2,30.12,North,11,5.0,12.0,72,0.00,,,0.00,246,HR-IXPWINDi_r2_v1.2.,2013-07-16 11:18:00,
2013-07-16 07:23:00,78.1,67.9,30.12,NNW,345,6.0,11.0,71,0.00,,,0.00,260,HR-IXPWINDi_r2_v1.2.,2013-07-16 11:23:00,
2013-07-16 07:28:00,78.4,68.2,30.12,NNE,20,5.0,12.0,71,0.00,,,0.00,276,HR-IXPWINDi_r2_v1.2.,2013-07-16 11:28:00,
2013-07-16 07:33:00,78.5,68.3,30.13,NNW,343,6.0,12.0,71,0.00,,,0.00,290,HR-IXPWINDi_r2_v1.2.,2013-07-16 11:33:00,
2013-07-16 07:39:00,78.8,68.5,30.13,NNW,327,6.0,12.0,71,0.00,,,0.00,306,HR-IXPWINDi_r2_v1.2.,2013-07-16 11:39:00,
2013-07-16 07:44:00,79.0,68.3,30.13,North,5,6.0,12.0,70,0.00,,,0.00,320,HR-IXPWINDi_r2_v1.2.,2013-07-16 11:44:00,
2013-07-16 07:49:00,79.2,68.5,30.12,NNW,344,8.0,12.0,70,0.00,,,0.00,334,HR-IXPWINDi_r2_v1.2.,2013-07-16 11:49:00,
2013-07-16 07:54:00,79.5,68.8,30.12,North,360,9.0,11.0,70,0.00,,,0.00,348,HR-IXPWINDi_r2_v1.2.,2013-07-16 11:54:00,
2013-07-16 08:00:00,79.8,69.1,30.12,NNW,348,6.0,11.0,70,0.00,,,0.00,364,HR-IXPWINDi_r2_v1.2.,2013-07-16 12:00:00,
2013-07-16 08:05:00,80.4,69.2,30.13,NNW,329,6.0,11.0,69,0.00,,,0.00,380,HR-IXPWINDi_r2_v1.2.,2013-07-16 12:05:00,
2013-07-16 08:10:00,80.6,69.0,30.13,NNW,337,6.0,11.0,68,0.00,,,0.00,392,HR-IXPWINDi_r2_v1.2.,2013-07-16 12:10:00,
2013-07-16 08:15:00,80.9,69.7,30.13,North,5,4.0,11.0,69,0.00,,,0.00,406,HR-IXPWINDi_r2_v1.2.,2013-07-16 12:15:00,
2013-07-16 08:20:00,81.1,69.5,30.13,NNW,329,7.0,11.0,68,0.00,,,0.00,418,HR-IXPWINDi_r2_v1.2.,2013-07-16 12:20:00,
2013-07-16 08:25:00,81.4,69.8,30.13,North,360,2.0,10.0,68,0.00,,,0.00,432,HR-IXPWINDi_r2_v1.2.,2013-07-16 12:25:00,
2013-07-16 08:30:00,82.1,70.4,30.13,NNW,338,7.0,10.0,68,0.00,,,0.00,445,HR-IXPWINDi_r2_v1.2.,2013-07-16 12:30:00,
2013-07-16 08:36:00,82.4,69.9,30.13,NE,44,4.0,10.0,66,0.00,,,0.00,462,HR-IXPWINDi_r2_v1.2.,2013-07-16 12:36:00,
2013-07-16 08:41:00,82.8,70.2,30.13,NNW,345,5.0,11.0,66,0.00,,,0.00,480,HR-IXPWINDi_r2_v1.2.,2013-07-16 12:41:00,
2013-07-16 08:46:00,82.9,70.3,30.13,NNW,344,5.0,11.0,66,0.00,,,0.00,494,HR-IXPWINDi_r2_v1.2.,2013-07-16 12:46:00,
2013-07-16 08:51:00,83.4,70.4,30.13,North,355,5.0,11.0,65,0.00,,,0.00,508,HR-IXPWINDi_r2_v1.2.,2013-07-16 12:51:00,
2013-07-16 08:56:00,83.6,70.5,30.13,NNW,336,7.0,10.0,65,0.00,,,0.00,520,HR-IXPWINDi_r2_v1.2.,2013-07-16 12:56:00,
2013-07-16 09:02:00,84.3,70.7,30.13,NNE,13,4.0,10.0,64,0.00,,,0.00,534,HR-IXPWINDi_r2_v1.2.,2013-07-16 13:02:00,
2013-07-16 09:07:00,84.5,70.5,30.13,North,350,5.0,9.0,63,0.00,,,0.00,550,HR-IXPWINDi_r2_v1.2.,2013-07-16 13:07:00,
2013-07-16 09:12:00,85.0,70.9,30.13,North,5,5.0,9.0,63,0.00,,,0.00,563,HR-IXPWINDi_r2_v1.2.,2013-07-16 13:12:00,
2013-07-16 09:17:00,85.4,70.9,30.13,North,355,4.0,8.0,62,0.00,,,0.00,578,HR-IXPWINDi_r2_v1.2.,2013-07-16 13:17:00,
2013-07-16 09:22:00,85.3,70.8,30.12,NNW,343,6.0,10.0,62,0.00,,,0.00,591,HR-IXPWINDi_r2_v1.2.,2013-07-16 13:22:00,
2013-07-16 09:28:00,85.4,70.4,30.12,NNW,341,5.0,10.0,61,0.00,,,0.00,606,HR-IXPWINDi_r2_v1.2.,2013-07-16 13:28:00,
2013-07-16 09:33:00,85.4,70.4,30.13,NNE,19,6.0,11.0,61,0.00,,,0.00,617,HR-IXPWINDi_r2_v1.2.,2013-07-16 13:33:00,
2013-07-16 09:38:00,85.8,71.2,30.13,NE,36,5.0,11.0,62,0.00,,,0.00,628,HR-IXPWINDi_r2_v1.2.,2013-07-16 13:38:00,
2013-07-16 09:43:00,86.3,71.2,30.13,NNW,344,5.0,9.0,61,0.00,,,0.00,640,HR-IXPWINDi_r2_v1.2.,2013-07-16 13:43:00,
2013-07-16 09:48:00,86.7,70.6,30.13,NNE,15,8.0,9.0,59,0.00,,,0.00,654,HR-IXPWINDi_r2_v1.2.,2013-07-16 13:48:00,
2013-07-16 09:53:00,87.5,71.4,30.13,NNE,19,10.0,10.0,59,0.00,,,0.00,664,HR-IXPWINDi_r2_v1.2.,2013-07-16 13:53:00,
2013-07-16 09:59:00,87.3,70.7,30.13,North,5,6.0,10.0,58,0.00,,,0.00,675,HR-IXPWINDi_r2_v1.2.,2013-07-16 13:59:00,
2013-07-16 10:04:00,87.5,70.4,30.13,NNE,14,2.0,11.0,57,0.00,,,0.00,686,HR-IXPWINDi_r2_v1.2.,2013-07-16 14:04:00,
2013-07-16 10:09:00,88.0,70.8,30.13,NNW,329,5.0,11.0,57,0.00,,,0.00,700,HR-IXPWINDi_r2_v1.2.,2013-07-16 14:09:00,
2013-07-16 10:14:00,88.1,70.9,30.13,NNE,22,2.0,7.0,57,0.00,,,0.00,707,HR-IXPWINDi_r2_v1.2.,2013-07-16 14:14:00,
2013-07-16 10:19:00,88.0,70.8,30.12,NE,36,7.0,8.0,57,0.00,,,0.00,715,HR-IXPWINDi_r2_v1.2.,2013-07-16 14:19:00,
2013-07-16 10:24:00,88.4,70.7,30.12,North,9,6.0,9.0,56,0.00,,,0.00,728,HR-IXPWINDi_r2_v1.2.,2013-07-16 14:24:00,
2013-07-16 10:29:00,88.7,70.9,30.12,NNE,15,4.0,9.0,56,0.00,,,0.00,738,HR-IXPWINDi_r2_v1.2.,2013-07-16 14:29:00,
2013-07-16 10:34:00,88.9,70.6,30.12,NNE,30,5.0,9.0,55,0.00,,,0.00,747,HR-IXPWINDi_r2_v1.2.,2013-07-16 14:34:00,
2013-07-16 10:39:00,89.2,70.9,30.12,North,355,2.0,8.0,55,0.00,,,0.00,756,HR-IXPWINDi_r2_v1.2.,2013-07-16 14:39:00,
2013-07-16 10:44:00,89.5,71.2,30.12,NE,40,5.0,8.0,55,0.00,,,0.00,761,HR-IXPWINDi_r2_v1.2.,2013-07-16 14:44:00,
2013-07-16 10:50:00,89.3,70.4,30.12,North,11,5.0,10.0,54,0.00,,,0.00,773,HR-IXPWINDi_r2_v1.2.,2013-07-16 14:50:00,
2013-07-16 10:55:00,89.2,70.3,30.12,ENE,70,2.0,10.0,54,0.00,,,0.00,777,HR-IXPWINDi_r2_v1.2.,2013-07-16 14:55:00,
2013-07-16 11:00:00,89.6,70.7,30.12,NNE,22,4.0,9.0,54,0.00,,,0.00,782,HR-IXPWINDi_r2_v1.2.,2013-07-16 15:00:00,
2013-07-16 11:05:00,89.6,71.8,30.12,SW,214,0.0,9.0,56,0.00,,,0.00,786,HR-IXPWINDi_r2_v1.2.,2013-07-16 15:05:00,
2013-07-16 11:10:00,88.2,72.0,30.12,SSE,153,4.0,6.0,59,0.00,,,0.00,798,HR-IXPWINDi_r2_v1.2.,2013-07-16 15:10:00,
2013-07-16 11:15:00,88.3,71.6,30.12,SE,144,3.0,6.0,58,0.00,,,0.00,805,HR-IXPWINDi_r2_v1.2.,2013-07-16 15:15:00,
2013-07-16 11:20:00,88.7,71.5,30.12,SSE,168,2.0,5.0,57,0.00,,,0.00,802,HR-IXPWINDi_r2_v1.2.,2013-07-16 15:20:00,
2013-07-16 11:26:00,88.0,71.3,30.12,SE,144,2.0,5.0,58,0.00,,,0.00,821,HR-IXPWINDi_r2_v1.2.,2013-07-16 15:26:00,
2013-07-16 11:31:00,88.5,71.3,30.12,SE,144,5.0,5.0,57,0.00,,,0.00,826,HR-IXPWINDi_r2_v1.2.,2013-07-16 15:31:00,
2013-07-16 11:36:00,88.9,73.2,30.12,South,182,0.0,6.0,60,0.00,,,0.00,833,HR-IXPWINDi_r2_v1.2.,2013-07-16 15:36:00,
2013-07-16 11:41:00,89.2,71.4,30.12,West,280,4.0,6.0,56,0.00,,,0.00,851,HR-IXPWINDi_r2_v1.2.,2013-07-16 15:41:00,
2013-07-16 11:46:00,90.3,71.9,30.12,ESE,113,0.0,4.0,55,0.00,,,0.00,867,HR-IXPWINDi_r2_v1.2.,2013-07-16 15:46:00,
2013-07-16 11:52:00,90.3,72.4,30.12,South,170,5.0,7.0,56,0.00,,,0.00,853,HR-IXPWINDi_r2_v1.2.,2013-07-16 15:52:00,
2013-07-16 11:57:00,87.6,72.0,30.12,SE,136,4.0,7.0,60,0.00,,,0.00,213,HR-IXPWINDi_r2_v1.2.,2013-07-16 15:57:00,
2013-07-16 12:02:00,88.0,71.8,30.12,SE,146,6.0,7.0,59,0.00,,,0.00,882,HR-IXPWINDi_r2_v1.2.,2013-07-16 16:02:00,
2013-07-16 12:07:00,86.8,74.0,30.12,South,178,6.0,6.0,66,0.00,,,0.00,207,HR-IXPWINDi_r2_v1.2.,2013-07-16 16:07:00,
2013-07-16 12:12:00,84.5,74.8,30.12,SE,130,3.0,7.0,73,0.00,,,0.00,918,HR-IXPWINDi_r2_v1.2.,2013-07-16 16:12:00,
2013-07-16 12:18:00,86.2,72.5,30.12,SE,139,6.0,7.0,64,0.00,,,0.00,914,HR-IXPWINDi_r2_v1.2.,2013-07-16 16:18:00,
2013-07-16 12:23:00,87.7,71.1,30.12,SSE,162,1.0,7.0,58,0.00,,,0.00,911,HR-IXPWINDi_r2_v1.2.,2013-07-16 16:23:00,
2013-07-16 12:28:00,88.0,71.8,30.12,SE,146,5.0,6.0,59,0.00,,,0.00,932,HR-IXPWINDi_r2_v1.2.,2013-07-16 16:28:00,
2013-07-16 12:33:00,87.6,72.0,30.12,SE,138,2.0,6.0,60,0.00,,,0.00,969,HR-IXPWINDi_r2_v1.2.,2013-07-16 16:33:00,
2013-07-16 12:38:00,88.5,71.3,30.12,SE,124,2.0,6.0,57,0.00,,,0.00,186,HR-IXPWINDi_r2_v1.2.,2013-07-16 16:38:00,
2013-07-16 12:43:00,88.6,72.9,30.12,SSE,159,0.0,6.0,60,0.00,,,0.00,916,HR-IXPWINDi_r2_v1.2.,2013-07-16 16:43:00,
2013-07-16 12:48:00,88.4,72.2,30.12,SSE,147,1.0,7.0,59,0.00,,,0.00,835,HR-IXPWINDi_r2_v1.2.,2013-07-16 16:48:00,
2013-07-16 12:54:00,88.3,73.6,30.12,South,175,2.0,7.0,62,0.00,,,0.00,874,HR-IXPWINDi_r2_v1.2.,2013-07-16 16:54:00,
2013-07-16 12:59:00,88.2,72.5,30.12,ESE,107,3.0,8.0,60,0.00,,,0.00,928,HR-IXPWINDi_r2_v1.2.,2013-07-16 16:59:00,
2013-07-16 13:04:00,87.5,72.4,30.11,ESE,111,4.0,9.0,61,0.00,,,0.00,295,HR-IXPWINDi_r2_v1.2.,2013-07-16 17:04:00,
2013-07-16 13:09:00,86.5,73.3,30.12,ESE,121,3.0,9.0,65,0.00,,,0.00,165,HR-IXPWINDi_r2_v1.2.,2013-07-16 17:09:00,
2013-07-16 13:14:00,84.7,72.0,30.12,East,94,6.0,11.0,66,0.00,,,0.00,944,HR-IXPWINDi_r2_v1.2.,2013-07-16 17:14:00,
2013-07-16 13:20:00,85.1,72.4,30.12,ESE,115,0.0,11.0,66,0.00,,,0.00,960,HR-IXPWINDi_r2_v1.2.,2013-07-16 17:20:00,
2013-07-16 13:25:00,87.4,72.3,30.11,East,84,6.0,8.0,61,0.00,,,0.00,229,HR-IXPWINDi_r2_v1.2.,2013-07-16 17:25:00,
2013-07-16 13:30:00,86.8,71.7,30.12,East,101,7.0,8.0,61,0.00,,,0.00,907,HR-IXPWINDi_r2_v1.2.,2013-07-16 17:30:00,
2013-07-16 13:35:00,86.6,71.5,30.11,East,89,3.0,8.0,61,0.00,,,0.00,919,HR-IXPWINDi_r2_v1.2.,2013-07-16 17:35:00,
2013-07-16 13:40:00,86.9,71.3,30.11,East,97,5.0,8.0,60,0.00,,,0.00,239,HR-IXPWINDi_r2_v1.2.,2013-07-16 17:40:00,
2013-07-16 13:46:00,86.1,71.5,30.11,ESE,110,7.0,9.0,62,0.00,,,0.00,900,HR-IXPWINDi_r2_v1.2.,2013-07-16 17:46:00,
2013-07-16 13:51:00,86.5,72.4,30.11,SE,134,5.0,9.0,63,0.00,,,0.00,174,HR-IXPWINDi_r2_v1.2.,2013-07-16 17:51:00,
2013-07-16 13:56:00,86.0,71.9,30.11,SE,130,5.0,10.0,63,0.00,,,0.00,881,HR-IXPWINDi_r2_v1.2.,2013-07-16 17:56:00,
2013-07-16 14:01:00,86.0,71.9,30.11,ESE,109,4.0,10.0,63,0.00,,,0.00,877,HR-IXPWINDi_r2_v1.2.,2013-07-16 18:01:00,
2013-07-16 14:07:00,85.0,71.4,30.11,East,101,6.0,10.0,64,0.00,,,0.00,916,HR-IXPWINDi_r2_v1.2.,2013-07-16 18:07:00,
2013-07-16 14:12:00,85.6,72.4,30.11,NE,56,6.0,10.0,65,0.00,,,0.00,900,HR-IXPWINDi_r2_v1.2.,2013-07-16 18:12:00,
2013-07-16 14:17:00,85.3,70.8,30.11,ENE,61,7.0,13.0,62,0.00,,,0.00,868,HR-IXPWINDi_r2_v1.2.,2013-07-16 18:17:00,
2013-07-16 14:22:00,85.6,70.6,30.11,ENE,63,5.0,13.0,61,0.00,,,0.00,271,HR-IXPWINDi_r2_v1.2.,2013-07-16 18:22:00,
2013-07-16 14:27:00,84.6,69.6,30.11,ENE,57,4.0,12.0,61,0.00,,,0.00,856,HR-IXPWINDi_r2_v1.2.,2013-07-16 18:27:00,
2013-07-16 14:33:00,86.1,70.5,30.11,ENE,76,3.0,11.0,60,0.00,,,0.00,849,HR-IXPWINDi_r2_v1.2.,2013-07-16 18:33:00,
2013-07-16 14:38:00,85.9,69.9,30.11,ENE,71,7.0,13.0,59,0.00,,,0.00,830,HR-IXPWINDi_r2_v1.2.,2013-07-16 18:38:00,
2013-07-16 14:43:00,85.0,70.5,30.11,ENE,59,1.0,13.0,62,0.00,,,0.00,817,HR-IXPWINDi_r2_v1.2.,2013-07-16 18:43:00,
2013-07-16 14:48:00,87.0,70.9,30.11,ESE,113,5.0,11.0,59,0.00,,,0.00,814,HR-IXPWINDi_r2_v1.2.,2013-07-16 18:48:00,
2013-07-16 14:53:00,85.7,70.7,30.11,East,85,11.0,13.0,61,0.00,,,0.00,819,HR-IXPWINDi_r2_v1.2.,2013-07-16 18:53:00,
2013-07-16 14:59:00,84.6,71.0,30.11,NE,49,3.0,14.0,64,0.00,,,0.00,791,HR-IXPWINDi_r2_v1.2.,2013-07-16 18:59:00,
2013-07-16 15:04:00,85.2,70.7,30.11,ENE,63,8.0,14.0,62,0.00,,,0.00,802,HR-IXPWINDi_r2_v1.2.,2013-07-16 19:04:00,
2013-07-16 15:09:00,85.8,70.8,30.11,East,82,10.0,13.0,61,0.00,,,0.00,745,HR-IXPWINDi_r2_v1.2.,2013-07-16 19:09:00,
2013-07-16 15:14:00,85.1,70.6,30.11,East,92,5.0,13.0,62,0.00,,,0.00,740,HR-IXPWINDi_r2_v1.2.,2013-07-16 19:14:00,
2013-07-16 15:19:00,85.0,71.4,30.11,ESE,103,5.0,13.0,64,0.00,,,0.00,724,HR-IXPWINDi_r2_v1.2.,2013-07-16 19:19:00,
2013-07-16 15:24:00,83.7,70.6,30.11,NE,44,7.0,12.0,65,0.00,,,0.00,373,HR-IXPWINDi_r2_v1.2.,2013-07-16 19:24:00,
2013-07-16 15:30:00,83.2,70.6,30.11,East,80,2.0,12.0,66,0.00,,,0.00,708,HR-IXPWINDi_r2_v1.2.,2013-07-16 19:30:00,
2013-07-16 15:35:00,82.2,71.0,30.11,East,93,9.0,12.0,69,0.00,,,0.00,689,HR-IXPWINDi_r2_v1.2.,2013-07-16 19:35:00,
2013-07-16 15:40:00,82.4,71.6,30.11,NE,36,6.0,13.0,70,0.00,,,0.00,680,HR-IXPWINDi_r2_v1.2.,2013-07-16 19:40:00,
2013-07-16 15:45:00,82.0,71.2,30.11,East,98,0.0,13.0,70,0.00,,,0.00,666,HR-IXPWINDi_r2_v1.2.,2013-07-16 19:45:00,
2013-07-16 15:50:00,81.9,71.5,30.11,East,80,6.0,11.0,71,0.00,,,0.00,657,HR-IXPWINDi_r2_v1.2.,2013-07-16 19:50:00,
2013-07-16 15:55:00,82.4,71.6,30.11,East,84,6.0,11.0,70,0.00,,,0.00,645,HR-IXPWINDi_r2_v1.2.,2013-07-16 19:55:00,
2013-07-16 16:00:00,82.3,71.5,30.11,SSE,150,4.0,8.0,70,0.00,,,0.00,624,HR-IXPWINDi_r2_v1.2.,2013-07-16 20:00:00,
2013-07-16 16:06:00,82.9,71.2,30.11,ESE,105,5.0,9.0,68,0.00,,,0.00,619,HR-IXPWINDi_r2_v1.2.,2013-07-16 20:06:00,
2013-07-16 16:11:00,82.7,71.4,30.11,NE,46,1.0,9.0,69,0.00,,,0.00,610,HR-IXPWINDi_r2_v1.2.,2013-07-16 20:11:00,
2013-07-16 16:16:00,82.1,70.9,30.11,ESE,118,5.0,8.0,69,0.00,,,0.00,594,HR-IXPWINDi_r2_v1.2.,2013-07-16 20:16:00,
2013-07-16 16:21:00,82.6,71.3,30.11,ESE,105,5.0,10.0,69,0.00,,,0.00,582,HR-IXPWINDi_r2_v1.2.,2013-07-16 20:21:00,
2013-07-16 16:26:00,82.6,71.8,30.11,SSE,155,2.0,10.0,70,0.00,,,0.00,564,HR-IXPWINDi_r2_v1.2.,2013-07-16 20:26:00,
2013-07-16 16:32:00,81.4,71.0,30.11,SE,135,7.0,10.0,71,0.00,,,0.00,557,HR-IXPWINDi_r2_v1.2.,2013-07-16 20:32:00,
2013-07-16 16:37:00,81.2,70.8,30.12,ESE,117,3.0,10.0,71,0.00,,,0.00,563,HR-IXPWINDi_r2_v1.2.,2013-07-16 20:37:00,
2013-07-16 16:42:00,80.9,70.6,30.11,ESE,117,7.0,10.0,71,0.00,,,0.00,526,HR-IXPWINDi_r2_v1.2.,2013-07-16 20:42:00,
2013-07-16 16:47:00,80.6,70.3,30.11,East,96,6.0,11.0,71,0.00,,,0.00,508,HR-IXPWINDi_r2_v1.2.,2013-07-16 20:47:00,
2013-07-16 16:53:00,80.3,70.8,30.11,ENE,58,3.0,11.0,73,0.00,,,0.00,490,HR-IXPWINDi_r2_v1.2.,2013-07-16 20:53:00,
2013-07-16 16:58:00,80.4,70.5,30.12,East,82,5.0,10.0,72,0.00,,,0.00,482,HR-IXPWINDi_r2_v1.2.,2013-07-16 20:58:00,
2013-07-16 17:03:00,80.0,70.1,30.11,ESE,117,7.0,10.0,72,0.00,,,0.00,158,HR-IXPWINDi_r2_v1.2.,2013-07-16 21:03:00,
2013-07-16 17:08:00,79.2,70.1,30.11,ENE,75,7.0,10.0,74,0.00,,,0.00,415,HR-IXPWINDi_r2_v1.2.,2013-07-16 21:08:00,
2013-07-16 17:14:00,79.1,69.6,30.11,ENE,71,4.0,10.0,73,0.00,,,0.00,127,HR-IXPWINDi_r2_v1.2.,2013-07-16 21:14:00,
2013-07-16 17:19:00,78.9,69.9,30.11,East,80,7.0,10.0,74,0.00,,,0.00,424,HR-IXPWINDi_r2_v1.2.,2013-07-16 21:19:00,
2013-07-16 17:24:00,79.6,70.5,30.11,ENE,70,3.0,10.0,74,0.00,,,0.00,406,HR-IXPWINDi_r2_v1.2.,2013-07-16 21:24:00,
2013-07-16 17:30:00,79.1,69.6,30.11,SE,126,5.0,9.0,73,0.00,,,0.00,383,HR-IXPWINDi_r2_v1.2.,2013-07-16 21:30:00,
2013-07-16 17:35:00,79.4,70.7,30.11,SE,126,1.0,9.0,75,0.00,,,0.00,367,HR-IXPWINDi_r2_v1.2.,2013-07-16 21:35:00,
2013-07-16 17:40:00,80.5,70.6,30.11,NE,54,2.0,9.0,72,0.00,,,0.00,376,HR-IXPWINDi_r2_v1.2.,2013-07-16 21:40:00,
2013-07-16 17:45:00,80.2,70.3,30.12,ESE,121,0.0,9.0,72,0.00,,,0.00,121,HR-IXPWINDi_r2_v1.2.,2013-07-16 21:45:00,
2013-07-16 17:50:00,79.9,70.4,30.12,SSE,165,0.0,6.0,73,0.00,,,0.00,144,HR-IXPWINDi_r2_v1.2.,2013-07-16 21:50:00,
2013-07-16 17:56:00,79.9,70.4,30.12,ENE,57,4.0,4.0,73,0.00,,,0.00,76,HR-IXPWINDi_r2_v1.2.,2013-07-16 21:56:00,
2013-07-16 18:01:00,79.0,69.6,30.12,ESE,106,2.0,5.0,73,0.00,,,0.00,62,HR-IXPWINDi_r2_v1.2.,2013-07-16 22:01:00,
2013-07-16 18:06:00,78.4,69.8,30.12,East,79,3.0,5.0,75,0.00,,,0.00,58,HR-IXPWINDi_r2_v1.2.,2013-07-16 22:06:00,
2013-07-16 18:11:00,77.9,69.3,30.12,East,92,5.0,6.0,75,0.00,,,0.00,58,HR-IXPWINDi_r2_v1.2.,2013-07-16 22:11:00,
2013-07-16 18:16:00,77.6,70.1,30.12,ENE,65,2.0,6.0,78,0.00,,,0.00,63,HR-IXPWINDi_r2_v1.2.,2013-07-16 22:16:00,
2013-07-16 18:22:00,77.8,70.0,30.12,East,98,0.0,5.0,77,0.00,,,0.00,76,HR-IXPWINDi_r2_v1.2.,2013-07-16 22:22:00,
2013-07-16 18:27:00,78.0,70.1,30.12,ENE,57,2.0,5.0,77,0.00,,,0.00,67,HR-IXPWINDi_r2_v1.2.,2013-07-16 22:27:00,
2013-07-16 18:32:00,77.3,69.5,30.12,East,91,0.0,6.0,77,0.00,,,0.00,67,HR-IXPWINDi_r2_v1.2.,2013-07-16 22:32:00,
2013-07-16 18:37:00,76.9,69.5,30.12,East,80,1.0,6.0,78,0.00,,,0.00,62,HR-IXPWINDi_r2_v1.2.,2013-07-16 22:37:00,
2013-07-16 18:43:00,77.4,69.9,30.12,ESE,111,0.0,6.0,78,0.00,,,0.00,62,HR-IXPWINDi_r2_v1.2.,2013-07-16 22:43:00,
2013-07-16 18:48:00,77.4,69.6,30.12,SE,136,2.0,3.0,77,0.00,,,0.00,86,HR-IXPWINDi_r2_v1.2.,2013-07-16 22:48:00,
2013-07-16 18:53:00,77.1,69.7,30.13,SE,136,1.0,3.0,78,0.00,,,0.00,69,HR-IXPWINDi_r2_v1.2.,2013-07-16 22:53:00,
2013-07-16 18:58:00,77.5,69.7,30.13,SE,133,0.0,3.0,77,0.00,,,0.00,120,HR-IXPWINDi_r2_v1.2.,2013-07-16 22:58:00,
2013-07-16 19:04:00,77.2,69.8,30.13,East,95,1.0,4.0,78,0.00,,,0.00,72,HR-IXPWINDi_r2_v1.2.,2013-07-16 23:04:00,
2013-07-16 19:09:00,77.2,69.8,30.13,East,94,2.0,5.0,78,0.00,,,0.00,62,HR-IXPWINDi_r2_v1.2.,2013-07-16 23:09:00,
2013-07-16 19:14:00,76.9,69.5,30.13,ESE,104,2.0,5.0,78,0.00,,,0.00,58,HR-IXPWINDi_r2_v1.2.,2013-07-16 23:14:00,
2013-07-16 19:19:00,76.7,69.3,30.13,East,81,2.0,6.0,78,0.00,,,0.00,44,HR-IXPWINDi_r2_v1.2.,2013-07-16 23:19:00,
2013-07-16 19:24:00,77.1,69.7,30.13,SE,134,3.0,6.0,78,0.00,,,0.00,40,HR-IXPWINDi_r2_v1.2.,2013-07-16 23:24:00,
2013-07-16 19:29:00,76.6,69.5,30.13,SE,129,3.0,5.0,79,0.00,,,0.00,32,HR-IXPWINDi_r2_v1.2.,2013-07-16 23:29:00,
2013-07-16 19:35:00,76.5,69.8,30.13,ENE,66,3.0,5.0,80,0.00,,,0.00,33,HR-IXPWINDi_r2_v1.2.,2013-07-16 23:35:00,
2013-07-16 19:40:00,76.7,69.6,30.13,East,88,0.0,5.0,79,0.00,,,0.00,35,HR-IXPWINDi_r2_v1.2.,2013-07-16 23:40:00,
2013-07-16 19:45:00,76.4,69.7,30.13,East,88,0.0,5.0,80,0.00,,,0.00,30,HR-IXPWINDi_r2_v1.2.,2013-07-16 23:45:00,
2013-07-16 19:51:00,76.6,69.9,30.13,East,88,1.0,3.0,80,0.00,,,0.00,19,HR-IXPWINDi_r2_v1.2.,2013-07-16 23:51:00,
2013-07-16 19:56:00,76.5,69.8,30.13,East,94,0.0,3.0,80,0.00,,,0.00,12,HR-IXPWINDi_r2_v1.2.,2013-07-16 23:56:00,
2013-07-16 20:01:00,76.1,69.8,30.13,East,94,0.0,3.0,81,0.00,,,0.00,11,HR-IXPWINDi_r2_v1.2.,2013-07-17 00:01:00,
2013-07-16 20:06:00,76.2,69.9,30.14,East,94,1.0,2.0,81,0.00,,,0.00,9,HR-IXPWINDi_r2_v1.2.,2013-07-17 00:06:00,
2013-07-16 20:12:00,76.0,69.7,30.14,East,94,0.0,2.0,81,0.00,,,0.00,7,HR-IXPWINDi_r2_v1.2.,2013-07-17 00:12:00,
2013-07-16 20:17:00,76.0,69.7,30.14,East,94,0.0,2.0,81,0.00,,,0.00,0,HR-IXPWINDi_r2_v1.2.,2013-07-17 00:17:00,
2013-07-16 20:22:00,75.9,69.2,30.14,East,94,0.0,2.0,80,0.00,,,0.00,0,HR-IXPWINDi_r2_v1.2.,2013-07-17 00:22:00,
2013-07-16 20:27:00,75.6,69.3,30.14,East,94,0.0,1.0,81,0.00,,,0.00,0,HR-IXPWINDi_r2_v1.2.,2013-07-17 00:27:00,
2013-07-16 20:32:00,75.5,69.2,30.14,East,95,0.0,2.0,81,0.00,,,0.00,0,HR-IXPWINDi_r2_v1.2.,2013-07-17 00:32:00,
2013-07-16 20:37:00,75.3,69.4,30.14,East,95,0.0,2.0,82,0.00,,,0.00,0,HR-IXPWINDi_r2_v1.2.,2013-07-17 00:37:00,
2013-07-16 20:43:00,75.2,69.3,30.14,East,95,0.0,1.0,82,0.00,,,0.00,0,HR-IXPWINDi_r2_v1.2.,2013-07-17 00:43:00,
2013-07-16 20:48:00,75.1,69.2,30.14,East,95,0.0,1.0,82,0.00,,,0.00,0,HR-IXPWINDi_r2_v1.2.,2013-07-17 00:48:00,
2013-07-16 20:53:00,75.2,69.3,30.15,East,95,0.0,0.0,82,0.00,,,0.00,0,HR-IXPWINDi_r2_v1.2.,2013-07-17 00:53:00,
2013-07-16 20:58:00,75.3,69.4,30.15,East,95,0.0,0.0,82,0.00,,,0.00,0,HR-IXPWINDi_r2_v1.2.,2013-07-17 00:58:00,
2013-07-16 21:04:00,75.4,69.5,30.15,East,95,0.0,0.0,82,0.00,,,0.00,0,HR-IXPWINDi_r2_v1.2.,2013-07-17 01:04:00,
2013-07-16 21:09:00,75.5,68.8,30.14,East,95,0.0,0.0,80,0.00,,,0.00,0,HR-IXPWINDi_r2_v1.2.,2013-07-17 01:09:00,
2013-07-16 21:14:00,75.5,68.5,30.15,East,95,0.0,0.0,79,0.00,,,0.00,0,HR-IXPWINDi_r2_v1.2.,2013-07-17 01:14:00,
2013-07-16 21:19:00,75.5,68.5,30.15,East,95,0.0,0.0,79,0.00,,,0.00,0,HR-IXPWINDi_r2_v1.2.,2013-07-17 01:19:00,
2013-07-16 21:24:00,75.6,68.2,30.15,East,95,0.0,0.0,78,0.00,,,0.00,0,HR-IXPWINDi_r2_v1.2.,2013-07-17 01:24:00,
2013-07-16 21:30:00,75.6,68.6,30.15,East,95,0.0,1.0,79,0.00,,,0.00,0,HR-IXPWINDi_r2_v1.2.,2013-07-17 01:30:00,
2013-07-16 21:35:00,75.5,68.5,30.15,East,95,1.0,1.0,79,0.00,,,0.00,0,HR-IXPWINDi_r2_v1.2.,2013-07-17 01:35:00,
2013-07-16 21:40:00,75.5,68.1,30.15,ENE,66,1.0,4.0,78,0.00,,,0.00,0,HR-IXPWINDi_r2_v1.2.,2013-07-17 01:40:00,
2013-07-16 21:45:00,75.5,68.1,30.15,ENE,67,1.0,4.0,78,0.00,,,0.00,0,HR-IXPWINDi_r2_v1.2.,2013-07-17 01:45:00,
2013-07-16 21:51:00,75.8,67.6,30.15,ENE,68,0.0,2.0,76,0.00,,,0.00,0,HR-IXPWINDi_r2_v1.2.,2013-07-17 01:51:00,
2013-07-16 21:56:00,76.1,67.9,30.15,ENE,68,0.0,2.0,76,0.00,,,0.00,0,HR-IXPWINDi_r2_v1.2.,2013-07-17 01:56:00,
2013-07-16 22:01:00,76.0,67.8,30.15,ENE,68,1.0,2.0,76,0.00,,,0.00,0,HR-IXPWINDi_r2_v1.2.,2013-07-17 02:01:00,
2013-07-16 22:07:00,75.9,67.0,30.15,East,81,2.0,2.0,74,0.00,,,0.00,0,HR-IXPWINDi_r2_v1.2.,2013-07-17 02:07:00,
2013-07-16 22:12:00,76.3,67.7,30.16,East,82,0.0,2.0,75,0.00,,,0.00,0,HR-IXPWINDi_r2_v1.2.,2013-07-17 02:12:00,
2013-07-16 22:17:00,75.6,67.4,30.16,East,81,0.0,2.0,76,0.00,,,0.00,0,HR-IXPWINDi_r2_v1.2.,2013-07-17 02:17:00,
2013-07-16 22:22:00,75.7,67.2,30.15,East,81,0.0,2.0,75,0.00,,,0.00,0,HR-IXPWINDi_r2_v1.2.,2013-07-17 02:22:00,
2013-07-16 22:27:00,76.0,67.1,30.15,East,82,0.0,2.0,74,0.00,,,0.00,0,HR-IXPWINDi_r2_v1.2.,2013-07-17 02:27:00,
2013-07-16 22:33:00,75.9,67.0,30.15,East,82,0.0,1.0,74,0.00,,,0.00,0,HR-IXPWINDi_r2_v1.2.,2013-07-17 02:33:00,
2013-07-16 22:38:00,75.8,67.3,30.15,East,82,0.0,1.0,75,0.00,,,0.00,0,HR-IXPWINDi_r2_v1.2.,2013-07-17 02:38:00,
2013-07-16 22:43:00,75.8,67.3,30.15,East,82,0.0,1.0,75,0.00,,,0.00,0,HR-IXPWINDi_r2_v1.2.,2013-07-17 02:43:00,
2013-07-16 22:48:00,75.9,67.0,30.15,East,82,0.0,2.0,74,0.00,,,0.00,0,HR-IXPWINDi_r2_v1.2.,2013-07-17 02:48:00,
2013-07-16 22:53:00,75.8,66.9,30.16,East,82,0.0,2.0,74,0.00,,,0.00,0,HR-IXPWINDi_r2_v1.2.,2013-07-17 02:53:00,
2013-07-16 22:59:00,75.6,67.1,30.16,East,82,0.0,2.0,75,0.00,,,0.00,0,HR-IXPWINDi_r2_v1.2.,2013-07-17 02:59:00,
2013-07-16 23:04:00,75.8,67.3,30.16,East,85,0.0,2.0,75,0.00,,,0.00,0,HR-IXPWINDi_r2_v1.2.,2013-07-17 03:04:00,
2013-07-16 23:09:00,75.9,67.3,30.16,East,85,0.0,2.0,75,0.00,,,0.00,0,HR-IXPWINDi_r2_v1.2.,2013-07-17 03:09:00,
2013-07-16 23:14:00,75.8,67.3,30.16,East,85,0.0,2.0,75,0.00,,,0.00,0,HR-IXPWINDi_r2_v1.2.,2013-07-17 03:14:00,
2013-07-16 23:20:00,75.8,67.6,30.16,East,85,0.0,2.0,76,0.00,,,0.00,0,HR-IXPWINDi_r2_v1.2.,2013-07-17 03:20:00,
2013-07-16 23:25:00,75.5,68.1,30.16,South,179,3.0,3.0,78,0.00,,,0.00,0,HR-IXPWINDi_r2_v1.2.,2013-07-17 03:25:00,
2013-07-16 23:30:00,75.2,68.9,30.16,South,179,1.0,3.0,81,0.00,,,0.00,0,HR-IXPWINDi_r2_v1.2.,2013-07-17 03:30:00,
2013-07-16 23:35:00,75.0,69.1,30.16,South,179,0.0,3.0,82,0.00,,,0.00,0,HR-IXPWINDi_r2_v1.2.,2013-07-17 03:35:00,
2013-07-16 23:40:00,74.8,69.6,30.16,South,179,0.0,2.0,84,0.00,,,0.00,0,HR-IXPWINDi_r2_v1.2.,2013-07-17 03:40:00,
2013-07-16 23:45:00,74.7,69.5,30.16,South,179,0.0,2.0,84,0.00,,,0.00,0,HR-IXPWINDi_r2_v1.2.,2013-07-17 03:45:00,
2013-07-16 23:51:00,74.4,68.8,30.16,South,179,0.0,0.0,83,0.00,,,0.00,0,HR-IXPWINDi_r2_v1.2.,2013-07-17 03:51:00,
2013-07-16 23:56:00,74.3,68.7,30.16,South,179,0.0,0.0,83,0.00,,,0.00,0,HR-IXPWINDi_r2_v1.2.,2013-07-17 03:56:00,